SWA869 KLAX-KHOU

Flight info

Callsign SWA869
Flight time N/A
Altitude 37000
Route DOTSS2 CNERY BLH SPTFR Q4 ZEBOL BAYBI ITUCO ELP AGAZY FST CSI REUBE SAT BELLR6
Aircraft B738/M-SADE2E3GIJ4RWZ/LB1D1

Departure

Time 2026-04-21 03:05
Airport Los Angeles International Airport (KLAX)

Arrival

Time N/A
Airport William P. Hobby Airport (KHOU)
Time Latitude Longitude Altitude Speed Heading
2026-04-21 02:30 33.94796 -118.40126 125 ft 0 kts 187°
2026-04-21 02:47 33.94811 -118.40124 121 ft 3 kts 187°
2026-04-21 02:47 33.94829 -118.40118 121 ft 3 kts 209°
2026-04-21 02:48 33.94844 -118.40103 126 ft 3 kts 238°
2026-04-21 02:48 33.94849 -118.40092 120 ft 0 kts 254°
2026-04-21 02:52 33.94847 -118.40099 120 ft 2 kts 250°
2026-04-21 02:53 33.94842 -118.40120 122 ft 3 kts 255°
2026-04-21 02:53 33.94836 -118.40148 125 ft 4 kts 259°
2026-04-21 02:53 33.94836 -118.40154 125 ft 0 kts 263°
2026-04-21 02:53 33.94832 -118.40189 121 ft 7 kts 263°
2026-04-21 02:54 33.94822 -118.40258 125 ft 10 kts 259°
2026-04-21 02:54 33.94808 -118.40346 122 ft 12 kts 258°
2026-04-21 02:54 33.94798 -118.40447 123 ft 13 kts 264°
2026-04-21 02:54 33.94786 -118.40559 123 ft 14 kts 262°
2026-04-21 02:55 33.94774 -118.40681 123 ft 15 kts 263°
2026-04-21 02:55 33.94761 -118.40808 123 ft 15 kts 263°
2026-04-21 02:55 33.94748 -118.40941 121 ft 16 kts 263°
2026-04-21 02:55 33.94733 -118.41076 122 ft 16 kts 262°
2026-04-21 02:56 33.94711 -118.41205 125 ft 15 kts 252°
2026-04-21 02:56 33.94534 -118.41261 124 ft 14 kts 173°
2026-04-21 02:56 33.94439 -118.41247 123 ft 14 kts 173°
2026-04-21 02:57 33.94347 -118.41233 121 ft 13 kts 173°
2026-04-21 02:57 33.94258 -118.41220 122 ft 13 kts 173°
2026-04-21 02:57 33.94171 -118.41206 122 ft 12 kts 172°
2026-04-21 02:57 33.94086 -118.41193 122 ft 12 kts 173°
2026-04-21 02:58 33.94004 -118.41182 122 ft 12 kts 173°
2026-04-21 02:58 33.93919 -118.41170 123 ft 13 kts 173°
2026-04-21 02:58 33.93828 -118.41158 122 ft 14 kts 174°
2026-04-21 02:58 33.93769 -118.41087 123 ft 14 kts 91°
2026-04-21 02:59 33.93780 -118.40967 125 ft 15 kts 83°
2026-04-21 02:59 33.93793 -118.40838 125 ft 16 kts 83°
2026-04-21 02:59 33.93807 -118.40698 125 ft 17 kts 83°
2026-04-21 02:59 33.93822 -118.40548 123 ft 19 kts 83°
2026-04-21 03:00 33.93839 -118.40393 122 ft 19 kts 82°
2026-04-21 03:00 33.93855 -118.40235 121 ft 20 kts 83°
2026-04-21 03:00 33.93871 -118.40069 124 ft 21 kts 83°
2026-04-21 03:00 33.93889 -118.39893 125 ft 21 kts 83°
2026-04-21 03:01 33.93909 -118.39714 125 ft 22 kts 82°
2026-04-21 03:01 33.93927 -118.39531 122 ft 21 kts 83°
2026-04-21 03:01 33.93943 -118.39357 124 ft 21 kts 83°
2026-04-21 03:01 33.93962 -118.39186 124 ft 20 kts 83°
2026-04-21 03:02 33.93980 -118.39019 125 ft 20 kts 83°
2026-04-21 03:02 33.93996 -118.38858 125 ft 19 kts 83°
2026-04-21 03:02 33.94011 -118.38702 121 ft 18 kts 83°
2026-04-21 03:02 33.94027 -118.38546 122 ft 19 kts 83°
2026-04-21 03:03 33.94038 -118.38438 123 ft 20 kts 83°
2026-04-21 03:03 33.94056 -118.38270 123 ft 21 kts 81°
2026-04-21 03:03 33.94077 -118.38056 125 ft 7 kts 88°
2026-04-21 03:03 33.94061 -118.38011 123 ft 6 kts 140°
2026-04-21 03:04 33.94036 -118.38000 123 ft 6 kts 166°
2026-04-21 03:04 33.93998 -118.38011 124 ft 6 kts 221°
2026-04-21 03:04 33.93982 -118.38062 122 ft 8 kts 260°
2026-04-21 03:04 33.93956 -118.38301 125 ft 64 kts 263°
2026-04-21 03:05 33.93865 -118.39177 122 ft 141 kts 261°
2026-04-21 03:05 33.93724 -118.40548 314 ft 185 kts 263°
2026-04-21 03:05 33.93553 -118.42209 791 ft 215 kts 262°
2026-04-21 03:05 33.93366 -118.44056 1782 ft 218 kts 263°
2026-04-21 03:06 33.93104 -118.45809 2707 ft 216 kts 249°
2026-04-21 03:06 33.92192 -118.47333 2918 ft 233 kts 227°
2026-04-21 03:06 33.91084 -118.48795 3422 ft 238 kts 230°
2026-04-21 03:06 33.90035 -118.50353 3977 ft 240 kts 231°
2026-04-21 03:07 33.88992 -118.51925 4573 ft 240 kts 230°
2026-04-21 03:07 33.87932 -118.53487 4980 ft 242 kts 229°
2026-04-21 03:07 33.86847 -118.55032 4993 ft 241 kts 225°
2026-04-21 03:07 33.85516 -118.56224 4981 ft 240 kts 197°
2026-04-21 03:08 33.83875 -118.56228 5023 ft 242 kts 164°
2026-04-21 03:08 33.82269 -118.55562 5027 ft 246 kts 162°
2026-04-21 03:08 33.80642 -118.54990 5010 ft 244 kts 167°
2026-04-21 03:08 33.78976 -118.54543 5087 ft 252 kts 169°
2026-04-21 03:09 33.77199 -118.54083 5588 ft 265 kts 168°
2026-04-21 03:09 33.75394 -118.53606 6441 ft 265 kts 168°
2026-04-21 03:09 33.73592 -118.53124 7231 ft 267 kts 168°
2026-04-21 03:09 33.71772 -118.52628 8015 ft 268 kts 167°
2026-04-21 03:10 33.70043 -118.51746 8739 ft 276 kts 144°
2026-04-21 03:10 33.68898 -118.49891 9480 ft 286 kts 112°
2026-04-21 03:10 33.68352 -118.47584 10249 ft 290 kts 109°
2026-04-21 03:10 33.67763 -118.45188 10506 ft 310 kts 112°
2026-04-21 03:11 33.67013 -118.42672 10683 ft 331 kts 114°
2026-04-21 03:11 33.66176 -118.40008 10988 ft 347 kts 114°
2026-04-21 03:11 33.65337 -118.37268 11557 ft 352 kts 113°
2026-04-21 03:11 33.64525 -118.34484 12210 ft 356 kts 110°
2026-04-21 03:12 33.63929 -118.31560 12826 ft 364 kts 103°
2026-04-21 03:12 33.63810 -118.28488 13360 ft 376 kts 88°
2026-04-21 03:12 33.64177 -118.25365 14042 ft 379 kts 83°
2026-04-21 03:12 33.64588 -118.22228 14562 ft 383 kts 86°
2026-04-21 03:13 33.64756 -118.19063 15060 ft 385 kts 93°
2026-04-21 03:13 33.64712 -118.15840 15636 ft 386 kts 96°
2026-04-21 03:13 33.64614 -118.12604 16220 ft 389 kts 96°
2026-04-21 03:13 33.64530 -118.09351 16747 ft 393 kts 96°
2026-04-21 03:14 33.64477 -118.06003 17295 ft 397 kts 95°
2026-04-21 03:14 33.64452 -118.02680 17869 ft 400 kts 95°
2026-04-21 03:14 33.64444 -117.99375 18380 ft 403 kts 95°
2026-04-21 03:14 33.64441 -117.95950 18834 ft 406 kts 95°
2026-04-21 03:15 33.64439 -117.92600 19313 ft 408 kts 95°
2026-04-21 03:15 33.64435 -117.89183 19800 ft 410 kts 95°
2026-04-21 03:15 33.64428 -117.85740 20277 ft 413 kts 95°
2026-04-21 03:15 33.64418 -117.82286 20749 ft 415 kts 94°
2026-04-21 03:16 33.64342 -117.78808 21200 ft 415 kts 101°
2026-04-21 03:16 33.63594 -117.75494 21577 ft 409 kts 117°
2026-04-21 03:16 33.62472 -117.72388 22230 ft 405 kts 118°
2026-04-21 03:16 33.61407 -117.69228 22561 ft 414 kts 113°
2026-04-21 03:17 33.60570 -117.65868 22895 ft 422 kts 108°
2026-04-21 03:17 33.59879 -117.62438 23423 ft 423 kts 107°
2026-04-21 03:17 33.59203 -117.59050 23876 ft 424 kts 108°
2026-04-21 03:17 33.58463 -117.55602 24215 ft 427 kts 109°
2026-04-21 03:18 33.57666 -117.52156 24553 ft 430 kts 110°
2026-04-21 03:18 33.56825 -117.48701 24926 ft 432 kts 110°
2026-04-21 03:18 33.55965 -117.45251 25321 ft 434 kts 110°
2026-04-21 03:18 33.55090 -117.41771 25681 ft 436 kts 110°
2026-04-21 03:19 33.54213 -117.38273 26020 ft 439 kts 110°
2026-04-21 03:19 33.53333 -117.34756 26343 ft 442 kts 110°
2026-04-21 03:19 33.52451 -117.31215 26689 ft 444 kts 110°
2026-04-21 03:19 33.51565 -117.27666 27043 ft 446 kts 110°
2026-04-21 03:20 33.50679 -117.24098 27370 ft 449 kts 109°
2026-04-21 03:20 33.50027 -117.20413 27592 ft 458 kts 97°
2026-04-21 03:20 33.50083 -117.16557 27896 ft 464 kts 88°
2026-04-21 03:20 33.50426 -117.12768 28465 ft 461 kts 86°
2026-04-21 03:21 33.50725 -117.08931 28706 ft 465 kts 90°
2026-04-21 03:21 33.50748 -117.05038 28827 ft 469 kts 95°
2026-04-21 03:21 33.50560 -117.01122 29182 ft 469 kts 97°
2026-04-21 03:21 33.50324 -116.97231 29607 ft 469 kts 97°
2026-04-21 03:22 33.50116 -116.93336 29911 ft 471 kts 96°
2026-04-21 03:22 33.49965 -116.89392 30129 ft 476 kts 95°
2026-04-21 03:22 33.49873 -116.85404 30351 ft 478 kts 94°
2026-04-21 03:22 33.49824 -116.81425 30709 ft 477 kts 93°
2026-04-21 03:23 33.49790 -116.77460 31129 ft 474 kts 93°
2026-04-21 03:23 33.49751 -116.73524 31475 ft 473 kts 94°
2026-04-21 03:23 33.49699 -116.69560 31683 ft 476 kts 94°
2026-04-21 03:23 33.49636 -116.65586 31847 ft 478 kts 94°
2026-04-21 03:24 33.49568 -116.61666 32149 ft 477 kts 94°
2026-04-21 03:24 33.49497 -116.57693 32561 ft 474 kts 94°
2026-04-21 03:24 33.49425 -116.53750 32907 ft 473 kts 94°
2026-04-21 03:24 33.49353 -116.49803 33111 ft 475 kts 94°
2026-04-21 03:25 33.49279 -116.45844 33268 ft 478 kts 94°
2026-04-21 03:25 33.49205 -116.41868 33533 ft 477 kts 94°
2026-04-21 03:25 33.49140 -116.37891 33905 ft 475 kts 94°
2026-04-21 03:25 33.49084 -116.33938 34204 ft 474 kts 94°
2026-04-21 03:26 33.49028 -116.29985 34352 ft 474 kts 94°
2026-04-21 03:26 33.48972 -116.26077 34448 ft 475 kts 94°
2026-04-21 03:26 33.48912 -116.22104 34630 ft 475 kts 94°
2026-04-21 03:26 33.48850 -116.18152 34906 ft 473 kts 94°
2026-04-21 03:27 33.48787 -116.14220 35201 ft 471 kts 95°
2026-04-21 03:27 33.48723 -116.10317 35437 ft 470 kts 95°
2026-04-21 03:27 33.48657 -116.06391 35569 ft 471 kts 95°
2026-04-21 03:27 33.48688 -116.02460 35678 ft 475 kts 89°
2026-04-21 03:28 33.49242 -115.98531 35651 ft 486 kts 71°
2026-04-21 03:28 33.50656 -115.94841 35977 ft 482 kts 64°
2026-04-21 03:28 33.52215 -115.91347 36621 ft 471 kts 65°
2026-04-21 03:28 33.53589 -115.87772 36690 ft 473 kts 72°
2026-04-21 03:29 33.54645 -115.84057 36943 ft 468 kts 76°
2026-04-21 03:29 33.55579 -115.80308 36896 ft 472 kts 76°
2026-04-21 03:29 33.57514 -115.72781 36897 ft 478 kts 74°
2026-04-21 03:30 33.59718 -115.65230 36904 ft 481 kts 72°
2026-04-21 03:30 33.61953 -115.57645 36908 ft 482 kts 74°
2026-04-21 03:31 33.62852 -115.53782 36822 ft 481 kts 85°
2026-04-21 03:31 33.62869 -115.49824 36887 ft 468 kts 101°
2026-04-21 03:31 33.61886 -115.42156 36881 ft 467 kts 102°
2026-04-21 03:32 33.61428 -115.34356 36895 ft 469 kts 94°
2026-04-21 03:32 33.61404 -115.26531 36891 ft 469 kts 94°
2026-04-21 03:33 33.61246 -115.18708 36882 ft 468 kts 96°
2026-04-21 03:33 33.60964 -115.10953 36876 ft 467 kts 96°
2026-04-21 03:34 33.60655 -115.03174 36876 ft 467 kts 96°
2026-04-21 03:34 33.60354 -114.95400 36894 ft 467 kts 96°
2026-04-21 03:35 33.60053 -114.87601 36914 ft 466 kts 96°
2026-04-21 03:35 33.59749 -114.79819 36919 ft 467 kts 96°
2026-04-21 03:36 33.59235 -114.72075 36895 ft 465 kts 101°
2026-04-21 03:36 33.58004 -114.64530 36853 ft 463 kts 108°
2026-04-21 03:37 33.57134 -114.60776 36956 ft 460 kts 110°
2026-04-21 03:37 33.56263 -114.57136 36907 ft 462 kts 109°
2026-04-21 03:37 33.54619 -114.49684 36929 ft 463 kts 107°
2026-04-21 03:38 33.53140 -114.42143 36947 ft 463 kts 106°
2026-04-21 03:38 33.51718 -114.34578 36914 ft 465 kts 106°
2026-04-21 03:39 33.50286 -114.27019 36863 ft 466 kts 106°
2026-04-21 03:39 33.48837 -114.19459 36899 ft 466 kts 106°
2026-04-21 03:40 33.47379 -114.11904 36963 ft 464 kts 106°
2026-04-21 03:40 33.45924 -114.04393 36940 ft 464 kts 106°
2026-04-21 03:41 33.44461 -113.96854 36886 ft 466 kts 106°
2026-04-21 03:41 33.42993 -113.89317 36888 ft 466 kts 106°
2026-04-21 03:42 33.41519 -113.81776 36921 ft 465 kts 106°
2026-04-21 03:42 33.40041 -113.74238 36957 ft 464 kts 106°
2026-04-21 03:43 33.38402 -113.66747 36955 ft 463 kts 110°
2026-04-21 03:43 33.36398 -113.59430 36931 ft 462 kts 113°
2026-04-21 03:44 33.34197 -113.52179 36912 ft 463 kts 113°
2026-04-21 03:44 33.32072 -113.44892 36899 ft 465 kts 112°
2026-04-21 03:45 33.30032 -113.37605 36894 ft 466 kts 111°
2026-04-21 03:45 33.27992 -113.30246 36911 ft 466 kts 111°
2026-04-21 03:46 33.25943 -113.22881 36920 ft 466 kts 111°
2026-04-21 03:46 33.23885 -113.15522 36898 ft 467 kts 111°
2026-04-21 03:47 33.21819 -113.08162 36890 ft 468 kts 111°
2026-04-21 03:47 33.19747 -113.00798 36916 ft 468 kts 111°
2026-04-21 03:48 33.18019 -112.94674 36903 ft 468 kts 111°
2026-04-21 03:48 33.15938 -112.87309 36907 ft 469 kts 111°
2026-04-21 03:49 33.13848 -112.79934 36897 ft 470 kts 111°
2026-04-21 03:49 33.11749 -112.72544 36921 ft 469 kts 112°
2026-04-21 03:50 33.09653 -112.65185 36930 ft 468 kts 112°
2026-04-21 03:50 33.07553 -112.57829 36910 ft 469 kts 112°
2026-04-21 03:51 33.05466 -112.50460 36925 ft 469 kts 110°
2026-04-21 03:51 33.03685 -112.42999 36896 ft 471 kts 107°